• Join FlightAware (Why Join?)
  • Login
  • US Flag 
06:51AM EDT


 

Airport Tracker/Info


-or-


 

Live Flight TrackerFlight Track Log ✈ FFT917 ✈ 15-Nov-2013 ✈ KTTN - KMCO

Flight Track Log - Related Links

Times and Time Zones

All times are in EST time to prevent confusion due to time zone crossing. See the FFT917 flight status page for this flight to view local times or setup timezone preferences in your user account.

Time Position Orientation Groundspeed Altitude Reporting Facility
EST Latitude Longitude Course Direction KTS MPH feet Rate Location/Type
11:35AM 40.2667 -74.8333 229° Southwest 158 182 900  Level Philadelphia TRACON
11:36AM 40.2333 -74.8833 229° Southwest 230 265 2,800 2,580 Climbing Philadelphia TRACON
11:37AM 40.2000 -74.9667 242° Southwest 250 288 6,200 2,100 Climbing Philadelphia TRACON
11:38AM 40.1667 -75.0333 237° Southwest 244 281 7,000 600 Climbing Philadelphia TRACON
11:39AM 40.1333 -75.1167 242° Southwest 252 290 7,500 1,500 Climbing Philadelphia TRACON
11:40AM 40.1000 -75.1833 237° Southwest 257 296 9,900 1,260 Climbing Philadelphia TRACON
11:41AM 40.0667 -75.2667 242° Southwest 255 293 10,000  Climbing Philadelphia TRACON
11:43AM 39.9894 -75.4500 241° Southwest 295 339 10,000 180 Level New York Center
11:44AM 39.9481 -75.5472 241° Southwest 305 351 10,700 1,920 Climbing New York Center
11:45AM 39.9067 -75.6419 240° Southwest 305 351 13,900 3,180 Climbing New York Center
11:46AM 39.8650 -75.7392 241° Southwest 305 351 17,100 2,520 Climbing New York Center
11:47AM 39.8194 -75.8306 237° Southwest 305 351 19,000 1,740 Climbing New York Center
11:48AM 39.7611 -75.9236 231° Southwest 316 364 20,600 1,740 Climbing New York Center
11:50AM 39.6103 -76.1625 231° Southwest 355 409 25,100 1,680 Climbing Washington Center
11:51AM 39.5408 -76.2697 230° Southwest 365 420 26,600 1,740 Climbing Washington Center
11:52AM 39.4756 -76.3711 230° Southwest 377 434 28,600 1,980 Climbing Washington Center
11:53AM 39.4083 -76.4725 229° Southwest 377 434 30,700 1,680 Climbing Washington Center
11:54AM 39.3428 -76.5764 231° Southwest 377 434 32,000 600 Climbing Washington Center
11:55AM 39.2794 -76.6747 230° Southwest 366 421 32,000  Level Washington Center
11:56AM 39.2161 -76.7756 231° Southwest 366 421 32,000  Level Washington Center
11:57AM 39.1525 -76.8736 230° Southwest 372 428 32,000  Level Washington Center
11:58AM 39.0867 -76.9742 230° Southwest 372 428 32,000  Level Washington Center
11:59AM 39.0169 -77.0689 227° Southwest 372 428 32,000  Level Washington Center
12:00PM 38.9408 -77.1528 221° Southwest 372 428 32,000  Level Washington Center
12:01PM 38.8625 -77.2367 220° Southwest 366 421 32,000  Level Washington Center
12:02PM 38.7883 -77.3200 221° Southwest 366 421 32,000  Level Washington Center
12:03PM 38.7186 -77.3931 219° Southwest 366 421 32,000  Level Washington Center
12:04PM 38.6422 -77.4761 220° Southwest 366 421 32,000  Level Washington Center
12:05PM 38.5658 -77.5592 220° Southwest 366 421 32,100  Climbing Washington Center
12:06PM 38.4914 -77.6422 221° Southwest 361 415 32,000 -60 Descending Washington Center
12:07PM 38.4172 -77.7222 220° Southwest 361 415 32,000  Level Washington Center
12:08PM 38.3428 -77.8022 220° Southwest 356 410 32,000 -60 Level Washington Center
12:09PM 38.2683 -77.8819 220° Southwest 356 410 31,900  Descending Washington Center
12:11PM 38.1775 -77.9730 218° Southwest  Level FlightAware Approximate
12:11PM 38.1192 -78.0411 218° Southwest 356 410 32,000  Level Washington Center
12:12PM 38.0467 -78.1178 220° Southwest 355 409 32,000  Level Washington Center
12:13PM 37.9675 -78.2019 220° Southwest 349 402 32,000  Level Washington Center
12:14PM 37.8889 -78.2756 216° Southwest 349 402 32,000  Level Washington Center
12:15PM 37.8164 -78.3442 217° Southwest 349 402 32,000  Level Washington Center
12:16PM 37.7481 -78.4100 217° Southwest 349 402 32,000  Level Washington Center
12:17PM 37.6733 -78.4781 216° Southwest 349 402 32,000  Level Washington Center
12:18PM 37.5967 -78.5483 216° Southwest 349 402 32,000 60 Level Washington Center
12:19PM 37.5217 -78.6242 219° Southwest 349 402 32,200 540 Climbing Washington Center
12:20PM 37.4450 -78.6917 215° Southwest 349 402 33,200 1,020 Climbing Washington Center
12:21PM 37.3636 -78.7692 217° Southwest 344 396 34,300 1,260 Climbing Washington Center
12:22PM 37.2867 -78.8367 215° Southwest 349 402 35,700 1,080 Climbing Washington Center
12:23PM 37.2117 -78.9064 217° Southwest 349 402 36,500 600 Climbing Washington Center
12:24PM 37.1367 -78.9789 218° Southwest 349 402 37,000 540 Climbing Washington Center
12:25PM 37.0575 -79.0508 216° Southwest 349 402 37,600 480 Climbing Washington Center
12:26PM 36.9867 -79.1178 217° Southwest 349 402 38,000 180 Climbing Washington Center
12:27PM 36.9075 -79.1894 216° Southwest 349 402 38,000  Level Washington Center
12:28PM 36.8322 -79.2611 217° Southwest 349 402 38,000  Level Washington Center
12:29PM 36.7528 -79.3328 216° Southwest 349 402 38,100  Climbing Washington Center
12:30PM 36.6667 -79.4139 217° Southwest 349 402 38,000 -60 Descending Washington Center
12:31PM 36.5894 -79.4828 216° Southwest 349 402 38,000  Level Washington Center
12:34PM 36.4011 -79.6511 216° Southwest 365 420 38,000  Level Atlanta Center
12:35PM 36.3222 -79.7225 216° Southwest 365 420 38,000  Level Atlanta Center
12:36PM 36.2436 -79.7936 216° Southwest 360 414 38,000  Level Atlanta Center
12:37PM 36.1583 -79.8675 215° Southwest 354 407 38,000  Level Atlanta Center
12:38PM 36.0794 -79.9383 216° Southwest 354 407 38,000  Level Atlanta Center
12:39PM 35.9939 -79.9967 209° Southwest 354 407 38,000  Level Atlanta Center
12:40PM 35.8994 -80.0475 204° Southwest 354 407 38,000  Level Atlanta Center
12:41PM 35.8153 -80.0900 202° Southwest 364 419 38,000  Level Atlanta Center
12:42PM 35.7231 -80.1353 202° Southwest 364 419 38,000  Level Atlanta Center
12:43PM 35.6306 -80.1858 204° Southwest 369 425 38,000  Level Atlanta Center
12:44PM 35.5342 -80.2336 202° Southwest 369 425 38,000  Level Atlanta Center
12:45PM 35.4417 -80.2789 202° Southwest 369 425 38,000  Level Atlanta Center
12:46PM 35.3408 -80.3267 201° Southwest 369 425 38,000  Level Atlanta Center
12:47PM 35.2461 -80.3692 200° South 369 425 38,000  Level Atlanta Center
12:48PM 35.1558 -80.4161 203° Southwest 369 425 38,000  Level Atlanta Center
12:51PM 34.8725 -80.5647 203° Southwest 366 421 38,000  Level Jacksonville Center
12:52PM 34.7817 -80.6075 201° Southwest 372 428 38,000 -60 Level Jacksonville Center
12:53PM 34.6886 -80.6531 202° Southwest 366 421 37,900  Descending Jacksonville Center
12:54PM 34.5889 -80.6808 193° South 366 421 38,000  Climbing Jacksonville Center
12:55PM 34.4872 -80.7061 192° South 371 427 38,000  Level Jacksonville Center
12:56PM 34.3833 -80.7289 190° South 376 433 38,000  Level Jacksonville Center
12:57PM 34.2794 -80.7514 190° South 376 433 38,000  Level Jacksonville Center
12:58PM 34.1775 -80.7742 190° South 376 433 38,000  Level Jacksonville Center
12:59PM 34.0736 -80.7942 189° South 376 433 38,000  Level Jacksonville Center
01:00PM 33.9694 -80.8167 190° South 381 438 38,000  Level Jacksonville Center
01:01PM 33.8656 -80.8417 191° South 381 438 38,000  Level Jacksonville Center
01:02PM 33.7617 -80.8642 190° South 386 444 38,000  Level Jacksonville Center
01:03PM 33.6556 -80.8864 190° South 386 444 38,000 -60 Level Jacksonville Center
01:04PM 33.5517 -80.9086 190° South 386 444 37,900  Descending Jacksonville Center
01:05PM 33.4475 -80.9286 189° South 386 444 38,000  Climbing Jacksonville Center
01:06PM 33.3456 -80.9531 191° South 391 450 38,000  Level Jacksonville Center
01:07PM 33.2397 -80.9753 190° South 391 450 38,000  Level Jacksonville Center
01:08PM 33.1375 -80.9947 189° South 391 450 38,000 -60 Level Jacksonville Center
01:09PM 33.0336 -81.0194 191° South 391 450 37,900 -60 Descending Jacksonville Center
01:10PM 32.9294 -81.0389 189° South 391 450 37,900  Level Jacksonville Center
01:11PM 32.8275 -81.0608 190° South 391 450 38,000  Climbing Jacksonville Center
01:12PM 32.7236 -81.0803 189° South 386 444 38,000  Level Jacksonville Center
01:13PM 32.6297 -81.0992 190° South 381 438 38,000  Level Jacksonville Center
01:14PM 32.5086 -81.0992 180° South 389 448 38,000  Level Jacksonville Center
01:15PM 32.3939 -81.0967 179° South 409 471 38,000  Level Jacksonville Center
01:16PM 32.2833 -81.0964 180° South 399 459 38,000  Level Jacksonville Center
01:17PM 32.1725 -81.0983 181° South 405 466 38,000  Level Jacksonville Center
01:18PM 32.0661 -81.1006 181° South 396 456 38,000 -60 Level Jacksonville Center
01:19PM 31.9533 -81.1003 180° South 396 456 37,900  Descending Jacksonville Center
01:20PM 31.8428 -81.1000 180° South 401 461 38,000  Climbing Jacksonville Center
01:21PM 31.7322 -81.0997 180° South 406 467 38,000  Level Jacksonville Center
01:22PM 31.6172 -81.1019 181° South 406 467 38,000  Level Jacksonville Center
01:23PM 31.5067 -81.1017 180° South 406 467 38,000  Level Jacksonville Center
01:24PM 31.4044 -81.1036 181° South 406 467 38,000  Level Jacksonville Center
01:25PM 31.2811 -81.1033 180° South 406 467 38,000  Level Jacksonville Center
01:26PM 31.1686 -81.1056 181° South 406 467 38,000  Level Jacksonville Center
01:27PM 31.0536 -81.1053 180° South 406 467 38,000 -60 Level Jacksonville Center
01:28PM 30.9408 -81.1050 180° South 406 467 37,900 -780 Descending Jacksonville Center
01:29PM 30.8239 -81.1072 181° South 406 467 36,500 -1,560 Descending Jacksonville Center
01:30PM 30.7111 -81.1069 180° South 406 467 34,800 -1,320 Descending Jacksonville Center
01:31PM 30.5944 -81.1067 180° South 406 467 33,900 -960 Descending Jacksonville Center
01:32PM 30.4775 -81.1067 180° South 416 479 32,900 -1,560 Descending Jacksonville Center
01:33PM 30.3564 -81.1089 181° South 423 487 30,800 -2,160 Descending Jacksonville Center
01:34PM 30.2311 -81.1086 180° South 436 502 28,600 -2,160 Descending Jacksonville Center
01:35PM 30.1100 -81.1108 181° South 441 507 26,500 -1,320 Descending Jacksonville Center
01:36PM 29.9931 -81.1131 181° South 441 507 26,000 -300 Descending Jacksonville Center
01:37PM 29.8761 -81.1106 179° South 436 502 26,000 -180 Level Jacksonville Center
01:38PM 29.7594 -81.1125 181° South 431 496 25,700 -1,260 Descending Jacksonville Center
01:39PM 29.6444 -81.1122 180° South 425 489 23,500 -2,400 Descending Jacksonville Center
01:40PM 29.5358 -81.1142 181° South 408 470 21,000 -5,760 Descending Jacksonville Center
01:41PM 29.4317 -81.1139 180° South 388 447 12,000 -2,100 Descending Jacksonville Center
01:42PM 29.3336 -81.1156 181° South 372 428 16,800 1,440 Climbing Jacksonville Center
01:43PM 29.2375 -81.1078 176° South 360 414 14,900 -1,680 Descending Jacksonville Center
01:44PM 29.1456 -81.1000 176° South 347 399 13,500 -1,320 Descending Jacksonville Center
01:45PM 29.0639 -81.0942 176° South 323 372 12,300 -900 Descending Jacksonville Center
01:46PM 28.9803 -81.0864 175° South 309 356 11,700 -1,200 Descending Jacksonville Center
01:47PM 28.9008 -81.0711 170° South 297 342 9,900 -1,560 Descending Jacksonville Center
01:48PM 28.8333 -81.0500 165° South 290 334 8,800 -1,080 Descending Orlando TRACON
01:49PM 28.7667 -81.0667 192° South 258 297 8,000 -1,020 Descending Orlando TRACON
01:50PM 28.7500 -81.1500 257° West 239 275 6,800 -1,260 Descending Orlando TRACON
01:51PM 28.7333 -81.2167 254° West 242 278 5,500 -1,320 Descending Orlando TRACON
01:52PM 28.6833 -81.2500 210° Southwest 232 267 4,500 -1,140 Descending Orlando TRACON
01:53PM 28.6167 -81.2667 192° South 224 258 3,300 -960 Descending Orlando TRACON
01:54PM 28.5667 -81.2833 196° South 199 229 2,600 -960 Descending Orlando TRACON
01:55PM 28.5167 -81.2833 180° South 178 205 1,500 -1,020 Descending Orlando TRACON
01:56PM 28.4667 -81.2833 180° South 146 168 500 -960 Descending Orlando TRACON
01:58PM 28.4294 -81.3090 186° South  Level Estimated
02:05PM 28.4294 -81.3090 186° South  Level Estimated
02:06PM 28.4294 -81.3090 186° South  Level Estimated
02:07PM 28.4294 -81.3090 186° South  Level Estimated